SCP
-0 -0 -0 0 0 0 0 -0 -0 -0 -0 -0 -0 -0 -0 -0 0 0 -0 -0 -0 0 0 0 0 0 0 0 0 0 0 0 0 -0 -0 0 0 0 0 0 0 0 0 0 0 0 0 0 0
0 -0 -0 -0 0 0 0 0 -0 -0 -0 -0 0 0 0 0 0 0 0 -0 0 0 -0 -0 -0 0 0 0 0 0 0 0 0 0 0 0 0 0 0 0 0 0 0 0 0 0 0 0 0
-0 -0 -0 0 0 0 0 0 -0 -0 0 -0 -0 0 0 0 0 0 -0 0 -0 -0 -0 -0 0 0 0 -0 -0 -0 -0 -0 0 0 0 0 0 0 0 0 0 0 0 0 0 0 0 0 0
-0 -0 -0 0 0 0 -0 -0 -0 -0 -0 -0 0 0 0 -0 -0 -0 0 0 -0 -0 -0 -0 -0 -0 0 0 -0 -0 -0 -0 0 0 0 0 0 0 0 0 0 0 0 0 0 0 0 0 0
0 -0 0 0 0 0 -0 -0 -0 -0 -0 -0 -0 0 -0 -0 -0 -0 -0 -0 -0 -0 0 0 0 0 0 0 0 0 0 0 0 0 0 0 0 0 0 0 0 0 0 0 0 0 0 0 0
0 0 0 0 0 0 0 -0 0 -0 -0 -0 -0 -0 -0 -0 -0 -0 -0 0 0 -0 -0 -0 0 0 0 0 0 0 0 0 0 -0 -0 -0 -0 -0 0 0 0 0 0 0 0 0 0 1 0
0 0 0 0 0 0 -0 -0 -0 -0 -0 -0 -0 -0 -0 -0 -0 -0 0 0 -0 -0 0 0 -0 -0 0 -0 -0 -0 -0 -0 -0 -0 -0 -0 -0 -0 -0 -0 -0 -0 -0 0 0 0 0 1 1
0 0 0 0 0 0 -0 -0 -0 -0 -0 -0 -0 0 0 0 -0 -0 -0 -0 -0 -0 0 0 -0 -0 -0 -0 -0 -0 -0 -0 0 0 0 0 0 0 0 0 0 0 0 0 0 1 1 1 1
0 0 0 0 0 0 0 -0 -0 -0 0 -0 -0 0 0 -0 0 -0 -0 0 -0 0 0 0 0 0 0 0 0 0 0 0 0 0 0 0 0 0 0 0 0 0 0 1 1 1 1 1 1
0 0 0 -0 -0 0 -0 -0 -0 -0 -0 0 0 0 0 0 -0 -0 -0 -0 -0 0 0 0 0 0 0 0 0 0 0 0 0 0 0 0 0 0 0 0 0 0 0 0 0 0 0 0 0
0 0 0 -0 -0 -0 -0 0 -0 0 0 0 0 0 0 0 -0 -0 -0 -0 -0 -0 -0 -0 0 0 0 0 0 0 0 0 0 0 0 0 0 0 0 0 0 0 0 0 0 0 0 0 1
0 0 0 0 -0 0 0 0 0 0 0 0 0 0 0 -0 -0 -0 0 0 0 -0 -0 -0 0 0 0 0 0 0 0 0 0 0 0 0 0 0 0 0 0 0 0 0 0 0 0 0 0
0 0 0 0 0 0 0 0 0 0 0 0 0 0 -0 -0 -0 -0 0 0 0 -0 -0 -0 0 0 0 0 0 0 0 0 0 0 0 0 0 0 0 0 0 0 0 0 0 0 0 0 0
0 0 0 0 0 0 0 0 0 0 0 0 0 0 0 0 0 0 0 -0 -0 0 0 0 0 0 0 0 0 0 0 0 0 0 0 0 0 0 0 0 0 0 0 0 0 0 0 0 0
0 0 0 0 0 0 0 0 0 0 0 0 0 0 0 0 0 0 0 0 0 0 0 0 0 0 0 0 0 0 0 0 0 0 0 0 0 0 0 0 0 0 0 0 0 0 0 0 0
0 0 0 0 0 0 0 0 0 0 0 0 0 0 0 0 0 0 0 0 0 0 0 0 0 0 0 0 0 0 0 0 0 0 0 0 0 0 0 0 0 0 0 0 0 0 0 0 0
0 0 0 0 0 0 0 0 0 0 0 0 0 0 0 0 0 0 0 0 0 0 0 0 0 0 0 0 0 0 0 0 0 0 0 0 0 0 0 0 0 0 0 0 0 0 0 0 0
0 0 0 0 0 0 0 0 0 0 0 0 0 0 0 0 0 0 0 0 0 0 0 0 0 0 0 0 0 0 0 0 0 0 0 0 0 0 0 0 0 0 0 0 0 0 0 0 0
0 0 0 0 0 0 0 0 0 0 0 0 0 0 0 0 0 0 0 0 0 0 0 0 0 0 0 0 0 0 0 0 0 0 0 0 0 0 0 0 0 0 0 0 0 0 0 0 0
0 0 0 0 0 0 0 0 0 0 0 0 0 0 0 0 0 0 0 0 0 0 0 0 0 0 0 0 0 0 0 0 0 0 0 0 0 0 0 0 0 0 0 0 0 0 0 0 0
0 0 0 0 0 0 0 0 0 0 0 0 0 0 0 0 0 0 0 0 0 0 0 0 0 0 0 0 0 0 0 0 0 0 0 0 0 0 0 0 0 0 0 0 0 0 0 0 0
0 0 0 0 0 0 0 0 0 0 0 0 0 0 0 0 0 0 0 0 0 0 0 0 0 0 0 -0 0 0 0 0 0 0 0 0 0 0 0 0 0 0 0 0 0 0 0 0 0
0 0 0 0 0 0 0 0 0 0 0 0 0 0 0 0 0 0 0 0 0 0 0 0 0 0 -0 -0 -0 -0 0 0 0 0 0 0 0 0 0 0 0 0 0 0 0 0 0 0 0
0 0 0 0 0 0 0 0 0 0 0 0 0 0 0 0 0 0 0 0 0 0 0 0 0 -0 -0 -0 -0 -0 0 0 0 0 0 0 0 0 0 0 0 0 0 0 0 0 0 0 0
0 0 0 0 0 0 0 0 0 0 0 0 0 0 0 0 0 0 0 0 0 0 0 0 0 0 -0 0 0 0 0 0 0 0 0 0 0 0 0 0 0 0 0 0 0 0 0 0 0
0 0 0 0 0 0 0 0 0 0 0 0 0 0 0 0 0 0 0 0 0 0 0 0 0 0 0 0 0 0 0 0 0 0 0 0 0 0 0 0 0 0 0 0 0 0 0 0 0
0 0 0 0 0 0 0 0 0 0 0 0 0 0 0 0 0 0 0 0 0 0 0 0 0 0 0 0 0 0 0 0 0 0 0 -0 -0 0 0 0 0 0 0 0 0 0 0 0 0
0 0 0 0 0 0 0 0 0 0 0 0 0 0 0 0 0 0 0 0 0 0 0 0 0 0 0 0 0 0 0 0 0 0 0 0 0 0 0 -0 -0 0 0 0 0 0 0 0 0
0 0 0 0 0 0 0 0 0 0 0 0 0 0 0 0 0 0 0 0 0 0 0 0 0 0 0 0 0 0 0 0 0 0 0 0 0 0 -0 -0 -0 -0 -0 -0 0 0 0 0 0
0 0 0 0 0 0 0 0 0 0 0 0 0 0 0 0 0 0 0 0 0 0 0 0 0 0 0 0 0 0 0 -0 -0 0 0 0 0 0 -0 -0 -0 -0 -0 -0 -0 0 0 0 0
Wind_Speed_500mb
28 26 15 5 2 6 6 9 5 11 7 5 3 9 11 26 11 4 2 9 9 13 8 7 12 14 13 13 12 11 12 14 15 15 15 15 14 13 10 6 4 2 1 1 1 1 0 2 6
24 23 10 4 11 11 7 4 11 21 7 4 6 10 22 13 15 6 7 5 19 13 10 8 11 14 13 10 10 10 11 12 14 14 13 12 11 9 7 5 3 1 1 2 2 2 2 3 7
18 17 6 6 6 14 11 10 17 17 19 5 5 16 10 6 3 6 9 21 16 11 12 9 9 11 8 5 3 2 2 4 6 8 7 7 7 7 7 7 6 5 4 4 5 6 8 10 11
15 8 8 9 20 9 7 6 10 21 5 6 8 15 9 9 5 12 21 17 14 14 15 14 11 8 5 2 1 3 3 3 3 3 4 4 5 7 10 11 11 10 10 11 12 13 14 16 17
7 5 4 7 15 8 9 20 8 11 2 6 7 8 8 5 11 19 17 16 13 17 19 18 16 11 8 7 7 7 7 8 6 5 3 4 5 7 10 12 12 14 15 16 17 17 17 17 18
1 3 3 9 14 5 8 14 13 4 4 8 8 10 9 17 9 15 17 16 14 15 16 18 17 13 11 12 12 12 11 9 9 10 10 10 11 11 11 11 12 14 17 20 23 24 22 22 22
6 4 3 5 6 12 8 8 6 13 7 9 8 6 10 10 12 16 19 16 14 12 11 11 14 14 11 10 11 12 13 14 14 14 13 11 9 7 8 10 10 11 15 21 24 25 27 27 27
10 7 12 4 6 7 14 11 12 11 8 9 6 7 12 13 16 18 15 14 11 13 12 13 14 12 11 12 11 11 12 13 13 12 9 4 6 7 12 14 18 21 24 24 25 26 27 30 30
13 7 13 11 13 12 14 8 4 8 18 11 13 17 21 20 18 19 18 13 9 7 8 13 13 11 10 10 10 11 10 7 5 1 5 16 22 24 25 27 28 34 34 34 36 34 33 31 29
6 8 14 8 12 17 7 8 17 12 13 20 36 33 28 26 23 21 18 13 11 12 10 13 11 9 8 7 4 2 6 4 6 11 18 25 25 24 25 28 31 29 29 30 32 31 33 32 30
8 6 14 13 17 13 14 20 7 25 15 12 32 28 27 26 24 22 18 15 11 14 16 13 9 5 5 5 5 6 8 12 17 23 28 31 31 33 30 28 22 21 21 22 26 26 27 31 31
5 10 11 5 18 11 19 30 20 24 22 32 30 30 27 23 20 18 14 17 14 12 12 9 3 3 7 8 9 13 17 21 24 27 28 26 23 15 15 18 19 16 17 19 19 19 19 25 29
7 3 7 5 12 12 28 24 28 41 36 37 31 28 25 21 18 12 13 10 9 7 8 4 0 5 9 12 16 19 19 19 19 17 19 16 13 15 18 22 22 23 23 20 19 16 22 21 24
9 4 17 15 21 22 32 28 12 22 36 38 29 30 21 20 19 12 8 6 6 7 8 8 7 8 13 16 18 18 15 12 13 15 14 13 12 17 20 21 25 29 30 31 28 28 31 28 24
16 18 18 10 16 15 41 16 21 31 37 39 35 29 26 23 16 12 11 8 8 10 13 15 13 13 17 12 11 12 10 11 13 14 16 16 17 21 25 29 33 36 34 31 29 32 36 37 36
8 6 8 14 6 16 6 17 22 25 36 34 31 27 26 24 22 19 16 14 13 12 8 9 8 12 14 19 21 22 25 22 23 25 27 26 26 28 30 34 36 39 41 42 38 38 38 41 46
3 8 8 18 3 10 4 17 23 22 33 32 28 26 24 24 22 21 18 20 20 18 14 9 6 12 15 19 20 21 27 29 33 34 32 34 36 38 39 41 43 45 46 49 49 46 45 46 48
9 9 8 15 7 8 14 20 23 20 27 28 29 27 26 24 24 24 24 27 27 27 25 23 17 13 15 19 23 26 29 31 34 36 37 38 40 42 42 44 46 47 49 51 53 54 52 52 51
15 7 12 7 9 8 16 24 15 19 24 27 25 25 27 23 23 23 25 26 26 27 27 26 24 24 20 19 19 22 27 30 34 36 37 39 41 42 43 44 46 46 47 49 51 52 51 47 42
12 23 11 15 12 12 20 16 11 15 16 21 28 26 28 26 22 21 22 21 20 23 26 27 29 31 36 39 41 41 39 37 35 35 36 36 36 38 41 42 43 44 45 44 42 41 40 36 33
13 19 25 12 20 20 26 9 14 11 14 18 20 22 24 25 24 22 18 16 18 19 20 24 32 38 43 48 50 49 44 39 34 33 33 34 35 35 36 37 37 37 37 37 36 34 33 31 25
12 6 26 34 13 5 15 5 24 24 22 29 31 29 28 28 24 20 15 13 9 9 17 25 32 38 44 51 55 55 45 37 36 36 35 34 33 31 30 29 29 30 30 29 31 33 33 34 29
9 21 27 18 9 13 16 8 13 22 32 37 40 38 34 30 24 22 17 11 4 5 13 21 29 37 47 57 58 46 36 32 32 33 32 30 27 26 26 25 23 25 25 26 28 30 31 34 34
35 18 15 6 4 8 7 11 9 16 33 27 40 43 37 33 30 25 21 12 4 6 14 26 33 43 54 60 53 42 34 32 31 32 31 28 25 20 21 22 20 21 23 24 25 24 25 26 26
4 12 5 7 7 5 3 9 9 4 8 14 44 47 43 39 35 29 23 14 10 11 16 25 36 47 54 52 44 36 32 31 29 30 29 29 24 21 17 18 18 19 22 21 20 21 23 25 25
5 4 4 5 5 3 5 9 1 1 4 10 24 42 41 38 34 30 25 19 14 10 15 25 36 44 49 44 36 32 28 27 27 30 30 26 23 22 15 13 15 18 20 20 20 21 22 25 25
9 5 5 11 3 6 1 4 14 5 4 19 20 36 41 40 38 35 32 24 17 11 15 25 35 42 42 34 32 27 24 25 28 32 36 38 36 33 26 20 18 20 20 23 25 25 25 25 24
1 16 5 3 3 7 5 6 9 8 14 15 29 41 46 41 38 38 35 28 19 11 16 25 33 37 30 29 29 28 26 25 29 31 36 37 38 38 33 28 27 28 30 31 32 29 29 25 23
9 7 10 8 2 7 11 5 6 9 16 26 36 44 47 45 42 41 38 30 20 11 15 23 29 25 20 22 26 27 25 22 26 27 31 34 34 37 40 38 33 30 30 35 37 36 35 35 35
4 7 7 6 8 2 4 11 6 8 9 22 26 35 39 42 41 37 36 29 18 10 13 20 23 13 14 19 21 17 23 24 24 26 27 28 29 29 29 28 26 24 23 27 31 33 37 38 39
Wind_Direction_500mb
355 355 5 24 98 50 76 116 120 168 206 208 38 344 346 43 33 63 30 109 141 141 133 126 144 143 127 116 106 100 106 122 132 131 128 130 134 135 133 130 126 100 42 344 321 331 315 219 226
358 356 5 359 59 57 52 135 201 207 170 111 111 22 34 56 46 53 98 113 129 135 122 121 144 148 147 139 126 119 114 121 130 135 138 138 137 140 144 145 145 156 321 338 356 354 319 272 251
3 2 2 49 53 45 341 275 267 187 144 62 58 48 44 29 47 92 102 117 119 111 96 100 124 141 149 158 179 170 132 124 134 146 151 162 178 195 210 224 233 240 250 251 262 280 289 287 275
358 356 47 46 46 48 309 313 141 135 163 329 80 69 67 99 78 113 124 114 108 96 86 86 98 104 114 130 121 102 110 98 95 124 160 198 223 241 248 254 261 265 265 267 271 278 284 286 283
8 21 13 71 63 54 87 121 105 159 140 83 33 99 113 107 136 130 125 116 106 108 111 122 125 125 131 126 108 90 78 77 77 65 26 346 328 318 311 303 289 273 262 259 261 265 271 271 269
126 85 334 47 75 113 130 187 171 203 102 96 84 110 97 139 113 133 130 120 124 131 135 131 122 124 115 112 120 127 121 98 79 66 49 26 14 7 4 340 321 307 294 283 277 274 270 269 271
196 133 168 100 47 149 153 148 150 125 112 70 99 85 98 95 112 134 141 139 131 130 119 103 92 97 109 112 85 69 67 61 61 59 57 47 23 2 354 341 308 287 287 289 285 281 276 271 271
151 116 158 164 127 89 158 140 130 138 103 104 38 96 89 92 123 129 123 120 135 138 131 104 94 102 105 105 98 90 89 96 99 96 101 73 352 314 292 295 287 283 282 275 268 274 279 275 273
151 165 211 188 178 142 163 159 123 109 118 70 39 72 103 119 137 134 115 119 134 121 118 120 107 106 108 110 113 102 89 90 111 160 308 312 300 300 301 307 302 298 300 296 290 285 284 279 282
162 207 200 192 178 155 149 167 140 147 109 79 88 94 127 137 138 139 131 128 141 141 152 158 155 116 115 136 156 340 317 303 290 311 312 309 301 304 305 301 300 300 293 286 290 293 290 281 273
157 209 174 206 211 157 126 128 104 131 87 92 121 112 125 129 130 133 137 125 115 111 162 175 176 165 190 223 271 282 283 292 299 304 304 300 300 300 302 306 316 325 326 319 290 283 290 286 280
191 207 186 159 217 186 164 129 91 73 100 120 113 121 124 121 117 120 112 92 89 79 80 87 114 230 233 241 255 269 279 289 293 297 298 296 294 305 330 338 336 341 353 345 330 300 308 299 285
210 43 158 265 185 149 131 116 106 97 109 110 110 123 110 115 109 94 77 70 65 68 59 71 80 253 262 271 276 282 284 283 288 293 297 303 315 320 320 326 327 320 331 330 325 333 339 315 283
131 67 104 102 135 144 128 123 103 112 117 102 122 109 106 100 94 85 60 35 2 347 332 338 314 299 296 297 296 290 285 287 293 292 292 298 320 327 323 323 316 318 320 313 311 309 301 297 299
152 101 110 86 132 118 126 84 98 130 120 103 101 101 101 95 99 85 70 53 30 10 354 333 325 333 326 322 318 303 296 312 310 313 309 304 305 314 318 318 317 315 315 315 308 298 296 290 284
151 152 143 146 129 153 256 144 132 141 125 111 105 104 100 95 90 88 82 67 54 42 20 14 355 333 324 331 331 327 321 321 323 322 322 321 319 319 317 315 313 312 312 312 311 307 300 292 289
99 160 133 162 99 151 336 141 150 149 135 121 115 113 102 96 94 88 80 75 70 64 54 33 16 344 336 335 330 326 326 322 317 316 315 315 316 317 316 315 313 311 309 308 307 305 301 296 290
142 130 123 167 147 75 88 112 129 148 141 133 125 122 114 106 100 98 93 87 82 75 67 61 46 31 356 338 329 324 318 316 314 314 316 315 314 312 313 312 309 307 307 306 303 301 298 296 295
119 155 135 78 12 104 119 133 134 151 145 139 134 130 123 120 119 112 101 92 84 77 69 60 52 40 25 9 352 337 329 319 313 312 313 312 312 313 312 313 314 315 315 316 316 314 313 309 303
150 145 114 88 56 98 138 117 131 173 163 162 153 149 144 139 137 126 107 92 80 69 57 47 35 25 15 8 2 353 341 331 324 322 321 321 321 320 322 323 324 325 327 330 332 333 334 331 330
177 178 169 144 112 83 140 135 180 188 173 168 169 159 158 159 159 140 126 103 78 64 56 41 29 18 8 2 356 350 340 333 330 330 331 330 331 330 329 332 335 339 344 350 356 3 7 2 358
155 241 143 139 171 138 216 180 201 192 193 195 180 171 174 175 164 150 143 121 97 67 40 25 18 9 1 356 350 346 343 342 341 344 346 348 344 345 346 349 354 1 10 17 21 21 21 17 6
111 132 128 147 96 145 196 258 125 198 218 206 187 186 187 179 172 171 168 154 128 28 15 7 4 1 358 353 351 351 350 350 349 350 353 355 358 357 360 3 10 17 29 30 30 25 21 22 26
137 107 89 94 123 229 168 236 189 189 234 205 193 192 187 182 181 182 190 185 221 302 346 354 355 359 356 351 351 356 357 355 354 354 358 2 4 4 9 16 24 30 33 33 32 21 17 15 22
140 163 162 205 207 298 67 202 294 210 222 223 200 189 184 184 183 188 197 200 241 288 341 344 356 357 351 348 352 358 0 359 3 3 360 0 359 3 11 24 33 30 24 22 18 11 6 6 8
117 196 221 272 277 5 163 233 249 14 260 216 205 193 182 182 187 191 200 212 239 282 324 348 352 350 346 348 356 0 3 9 14 14 13 8 4 3 10 27 28 22 19 18 13 5 1 360 357
141 140 60 106 84 244 130 253 253 244 227 206 182 185 185 186 191 192 204 217 234 273 329 343 349 349 350 2 6 11 27 30 35 36 40 43 41 44 45 43 36 35 35 31 28 24 21 18 20
81 130 152 108 206 282 208 259 274 226 216 189 195 192 191 189 184 192 204 214 230 269 320 340 347 353 5 19 35 46 45 42 51 48 46 49 51 53 54 59 61 61 56 45 33 28 24 22 21
145 147 71 100 323 276 292 263 202 214 207 206 203 198 190 184 184 193 202 210 227 268 320 340 350 1 23 46 52 47 36 52 60 52 48 52 54 56 58 62 63 61 48 35 33 39 43 45 44
85 146 153 205 200 198 291 283 182 232 255 222 203 194 188 184 184 188 199 209 222 262 318 342 353 14 50 63 60 43 62 64 48 44 47 47 47 45 44 44 42 31 28 31 35 42 42 40 37
Wind_Speed_850mb
28 26 15 5 2 6 6 9 5 11 7 5 3 9 11 26 11 4 2 9 9 13 8 7 12 14 13 13 12 11 12 14 15 15 15 15 14 13 10 6 4 2 1 1 1 1 0 2 6
24 23 10 4 11 11 7 4 11 21 7 4 6 10 22 13 15 6 7 5 19 13 10 8 11 14 13 10 10 10 11 12 14 14 13 12 11 9 7 5 3 1 1 2 2 2 2 3 7
18 17 6 6 6 14 11 10 17 17 19 5 5 16 10 6 3 6 9 21 16 11 12 9 9 11 8 5 3 2 2 4 6 8 7 7 7 7 7 7 6 5 4 4 5 6 8 10 11
15 8 8 9 20 9 7 6 10 21 5 6 8 15 9 9 5 12 21 17 14 14 15 14 11 8 5 2 1 3 3 3 3 3 4 4 5 7 10 11 11 10 10 11 12 13 14 16 17
7 5 4 7 15 8 9 20 8 11 2 6 7 8 8 5 11 19 17 16 13 17 19 18 16 11 8 7 7 7 7 8 6 5 3 4 5 7 10 12 12 14 15 16 17 17 17 17 18
1 3 3 9 14 5 8 14 13 4 4 8 8 10 9 17 9 15 17 16 14 15 16 18 17 13 11 12 12 12 11 9 9 10 10 10 11 11 11 11 12 14 17 20 23 24 22 22 22
6 4 3 5 6 12 8 8 6 13 7 9 8 6 10 10 12 16 19 16 14 12 11 11 14 14 11 10 11 12 13 14 14 14 13 11 9 7 8 10 10 11 15 21 24 25 27 27 27
10 7 12 4 6 7 14 11 12 11 8 9 6 7 12 13 16 18 15 14 11 13 12 13 14 12 11 12 11 11 12 13 13 12 9 4 6 7 12 14 18 21 24 24 25 26 27 30 30
13 7 13 11 13 12 14 8 4 8 18 11 13 17 21 20 18 19 18 13 9 7 8 13 13 11 10 10 10 11 10 7 5 1 5 16 22 24 25 27 28 34 34 34 36 34 33 31 29
6 8 14 8 12 17 7 8 17 12 13 20 36 33 28 26 23 21 18 13 11 12 10 13 11 9 8 7 4 2 6 4 6 11 18 25 25 24 25 28 31 29 29 30 32 31 33 32 30
8 6 14 13 17 13 14 20 7 25 15 12 32 28 27 26 24 22 18 15 11 14 16 13 9 5 5 5 5 6 8 12 17 23 28 31 31 33 30 28 22 21 21 22 26 26 27 31 31
5 10 11 5 18 11 19 30 20 24 22 32 30 30 27 23 20 18 14 17 14 12 12 9 3 3 7 8 9 13 17 21 24 27 28 26 23 15 15 18 19 16 17 19 19 19 19 25 29
7 3 7 5 12 12 28 24 28 41 36 37 31 28 25 21 18 12 13 10 9 7 8 4 0 5 9 12 16 19 19 19 19 17 19 16 13 15 18 22 22 23 23 20 19 16 22 21 24
9 4 17 15 21 22 32 28 12 22 36 38 29 30 21 20 19 12 8 6 6 7 8 8 7 8 13 16 18 18 15 12 13 15 14 13 12 17 20 21 25 29 30 31 28 28 31 28 24
16 18 18 10 16 15 41 16 21 31 37 39 35 29 26 23 16 12 11 8 8 10 13 15 13 13 17 12 11 12 10 11 13 14 16 16 17 21 25 29 33 36 34 31 29 32 36 37 36
8 6 8 14 6 16 6 17 22 25 36 34 31 27 26 24 22 19 16 14 13 12 8 9 8 12 14 19 21 22 25 22 23 25 27 26 26 28 30 34 36 39 41 42 38 38 38 41 46
3 8 8 18 3 10 4 17 23 22 33 32 28 26 24 24 22 21 18 20 20 18 14 9 6 12 15 19 20 21 27 29 33 34 32 34 36 38 39 41 43 45 46 49 49 46 45 46 48
9 9 8 15 7 8 14 20 23 20 27 28 29 27 26 24 24 24 24 27 27 27 25 23 17 13 15 19 23 26 29 31 34 36 37 38 40 42 42 44 46 47 49 51 53 54 52 52 51
15 7 12 7 9 8 16 24 15 19 24 27 25 25 27 23 23 23 25 26 26 27 27 26 24 24 20 19 19 22 27 30 34 36 37 39 41 42 43 44 46 46 47 49 51 52 51 47 42
12 23 11 15 12 12 20 16 11 15 16 21 28 26 28 26 22 21 22 21 20 23 26 27 29 31 36 39 41 41 39 37 35 35 36 36 36 38 41 42 43 44 45 44 42 41 40 36 33
13 19 25 12 20 20 26 9 14 11 14 18 20 22 24 25 24 22 18 16 18 19 20 24 32 38 43 48 50 49 44 39 34 33 33 34 35 35 36 37 37 37 37 37 36 34 33 31 25
12 6 26 34 13 5 15 5 24 24 22 29 31 29 28 28 24 20 15 13 9 9 17 25 32 38 44 51 55 55 45 37 36 36 35 34 33 31 30 29 29 30 30 29 31 33 33 34 29
9 21 27 18 9 13 16 8 13 22 32 37 40 38 34 30 24 22 17 11 4 5 13 21 29 37 47 57 58 46 36 32 32 33 32 30 27 26 26 25 23 25 25 26 28 30 31 34 34
35 18 15 6 4 8 7 11 9 16 33 27 40 43 37 33 30 25 21 12 4 6 14 26 33 43 54 60 53 42 34 32 31 32 31 28 25 20 21 22 20 21 23 24 25 24 25 26 26
4 12 5 7 7 5 3 9 9 4 8 14 44 47 43 39 35 29 23 14 10 11 16 25 36 47 54 52 44 36 32 31 29 30 29 29 24 21 17 18 18 19 22 21 20 21 23 25 25
5 4 4 5 5 3 5 9 1 1 4 10 24 42 41 38 34 30 25 19 14 10 15 25 36 44 49 44 36 32 28 27 27 30 30 26 23 22 15 13 15 18 20 20 20 21 22 25 25
9 5 5 11 3 6 1 4 14 5 4 19 20 36 41 40 38 35 32 24 17 11 15 25 35 42 42 34 32 27 24 25 28 32 36 38 36 33 26 20 18 20 20 23 25 25 25 25 24
1 16 5 3 3 7 5 6 9 8 14 15 29 41 46 41 38 38 35 28 19 11 16 25 33 37 30 29 29 28 26 25 29 31 36 37 38 38 33 28 27 28 30 31 32 29 29 25 23
9 7 10 8 2 7 11 5 6 9 16 26 36 44 47 45 42 41 38 30 20 11 15 23 29 25 20 22 26 27 25 22 26 27 31 34 34 37 40 38 33 30 30 35 37 36 35 35 35
4 7 7 6 8 2 4 11 6 8 9 22 26 35 39 42 41 37 36 29 18 10 13 20 23 13 14 19 21 17 23 24 24 26 27 28 29 29 29 28 26 24 23 27 31 33 37 38 39
Wind_Direction_850mb
355 355 5 24 98 50 76 116 120 168 206 208 38 344 346 43 33 63 30 109 141 141 133 126 144 143 127 116 106 100 106 122 132 131 128 130 134 135 133 130 126 100 42 344 321 331 315 219 226
358 356 5 359 59 57 52 135 201 207 170 111 111 22 34 56 46 53 98 113 129 135 122 121 144 148 147 139 126 119 114 121 130 135 138 138 137 140 144 145 145 156 321 338 356 354 319 272 251
3 2 2 49 53 45 341 275 267 187 144 62 58 48 44 29 47 92 102 117 119 111 96 100 124 141 149 158 179 170 132 124 134 146 151 162 178 195 210 224 233 240 250 251 262 280 289 287 275
358 356 47 46 46 48 309 313 141 135 163 329 80 69 67 99 78 113 124 114 108 96 86 86 98 104 114 130 121 102 110 98 95 124 160 198 223 241 248 254 261 265 265 267 271 278 284 286 283
8 21 13 71 63 54 87 121 105 159 140 83 33 99 113 107 136 130 125 116 106 108 111 122 125 125 131 126 108 90 78 77 77 65 26 346 328 318 311 303 289 273 262 259 261 265 271 271 269
126 85 334 47 75 113 130 187 171 203 102 96 84 110 97 139 113 133 130 120 124 131 135 131 122 124 115 112 120 127 121 98 79 66 49 26 14 7 4 340 321 307 294 283 277 274 270 269 271
196 133 168 100 47 149 153 148 150 125 112 70 99 85 98 95 112 134 141 139 131 130 119 103 92 97 109 112 85 69 67 61 61 59 57 47 23 2 354 341 308 287 287 289 285 281 276 271 271
151 116 158 164 127 89 158 140 130 138 103 104 38 96 89 92 123 129 123 120 135 138 131 104 94 102 105 105 98 90 89 96 99 96 101 73 352 314 292 295 287 283 282 275 268 274 279 275 273
151 165 211 188 178 142 163 159 123 109 118 70 39 72 103 119 137 134 115 119 134 121 118 120 107 106 108 110 113 102 89 90 111 160 308 312 300 300 301 307 302 298 300 296 290 285 284 279 282
162 207 200 192 178 155 149 167 140 147 109 79 88 94 127 137 138 139 131 128 141 141 152 158 155 116 115 136 156 340 317 303 290 311 312 309 301 304 305 301 300 300 293 286 290 293 290 281 273
157 209 174 206 211 157 126 128 104 131 87 92 121 112 125 129 130 133 137 125 115 111 162 175 176 165 190 223 271 282 283 292 299 304 304 300 300 300 302 306 316 325 326 319 290 283 290 286 280
191 207 186 159 217 186 164 129 91 73 100 120 113 121 124 121 117 120 112 92 89 79 80 87 114 230 233 241 255 269 279 289 293 297 298 296 294 305 330 338 336 341 353 345 330 300 308 299 285
210 43 158 265 185 149 131 116 106 97 109 110 110 123 110 115 109 94 77 70 65 68 59 71 80 253 262 271 276 282 284 283 288 293 297 303 315 320 320 326 327 320 331 330 325 333 339 315 283
131 67 104 102 135 144 128 123 103 112 117 102 122 109 106 100 94 85 60 35 2 347 332 338 314 299 296 297 296 290 285 287 293 292 292 298 320 327 323 323 316 318 320 313 311 309 301 297 299
152 101 110 86 132 118 126 84 98 130 120 103 101 101 101 95 99 85 70 53 30 10 354 333 325 333 326 322 318 303 296 312 310 313 309 304 305 314 318 318 317 315 315 315 308 298 296 290 284
151 152 143 146 129 153 256 144 132 141 125 111 105 104 100 95 90 88 82 67 54 42 20 14 355 333 324 331 331 327 321 321 323 322 322 321 319 319 317 315 313 312 312 312 311 307 300 292 289
99 160 133 162 99 151 336 141 150 149 135 121 115 113 102 96 94 88 80 75 70 64 54 33 16 344 336 335 330 326 326 322 317 316 315 315 316 317 316 315 313 311 309 308 307 305 301 296 290
142 130 123 167 147 75 88 112 129 148 141 133 125 122 114 106 100 98 93 87 82 75 67 61 46 31 356 338 329 324 318 316 314 314 316 315 314 312 313 312 309 307 307 306 303 301 298 296 295
119 155 135 78 12 104 119 133 134 151 145 139 134 130 123 120 119 112 101 92 84 77 69 60 52 40 25 9 352 337 329 319 313 312 313 312 312 313 312 313 314 315 315 316 316 314 313 309 303
150 145 114 88 56 98 138 117 131 173 163 162 153 149 144 139 137 126 107 92 80 69 57 47 35 25 15 8 2 353 341 331 324 322 321 321 321 320 322 323 324 325 327 330 332 333 334 331 330
177 178 169 144 112 83 140 135 180 188 173 168 169 159 158 159 159 140 126 103 78 64 56 41 29 18 8 2 356 350 340 333 330 330 331 330 331 330 329 332 335 339 344 350 356 3 7 2 358
155 241 143 139 171 138 216 180 201 192 193 195 180 171 174 175 164 150 143 121 97 67 40 25 18 9 1 356 350 346 343 342 341 344 346 348 344 345 346 349 354 1 10 17 21 21 21 17 6
111 132 128 147 96 145 196 258 125 198 218 206 187 186 187 179 172 171 168 154 128 28 15 7 4 1 358 353 351 351 350 350 349 350 353 355 358 357 360 3 10 17 29 30 30 25 21 22 26
137 107 89 94 123 229 168 236 189 189 234 205 193 192 187 182 181 182 190 185 221 302 346 354 355 359 356 351 351 356 357 355 354 354 358 2 4 4 9 16 24 30 33 33 32 21 17 15 22
140 163 162 205 207 298 67 202 294 210 222 223 200 189 184 184 183 188 197 200 241 288 341 344 356 357 351 348 352 358 0 359 3 3 360 0 359 3 11 24 33 30 24 22 18 11 6 6 8
117 196 221 272 277 5 163 233 249 14 260 216 205 193 182 182 187 191 200 212 239 282 324 348 352 350 346 348 356 0 3 9 14 14 13 8 4 3 10 27 28 22 19 18 13 5 1 360 357
141 140 60 106 84 244 130 253 253 244 227 206 182 185 185 186 191 192 204 217 234 273 329 343 349 349 350 2 6 11 27 30 35 36 40 43 41 44 45 43 36 35 35 31 28 24 21 18 20
81 130 152 108 206 282 208 259 274 226 216 189 195 192 191 189 184 192 204 214 230 269 320 340 347 353 5 19 35 46 45 42 51 48 46 49 51 53 54 59 61 61 56 45 33 28 24 22 21
145 147 71 100 323 276 292 263 202 214 207 206 203 198 190 184 184 193 202 210 227 268 320 340 350 1 23 46 52 47 36 52 60 52 48 52 54 56 58 62 63 61 48 35 33 39 43 45 44
85 146 153 205 200 198 291 283 182 232 255 222 203 194 188 184 184 188 199 209 222 262 318 342 353 14 50 63 60 43 62 64 48 44 47 47 47 45 44 44 42 31 28 31 35 42 42 40 37